Location: Mapua
(41.2500°S, 173.1000°E)
Time: 00:27:36
(UTC+12:00)

N. Korean satellite - Visible Passes

Search period start: 22 September 2018 00:00
Search period end: 02 October 2018 01:00
Orbit: 458 x 511 km, 97.2° (Epoch: 20 September)

Date Brightness Start Highest point End Pass type
(mag) Time Alt. Az. Time Alt. Az. Time Alt. Az.
22 Sep 8.9 05:27:33 10° NE 05:30:51 30° ESE 05:34:08 10° S visible
22 Sep 10.0 20:02:20 10° SW 20:04:01 13° WSW 20:05:42 10° W visible
23 Sep 9.9 05:04:20 10° ENE 05:06:41 16° ESE 05:09:03 10° SSE visible
23 Sep 9.1 19:36:58 10° SSW 19:39:53 24° WSW 19:42:46 10° NW visible
24 Sep 7.6 19:12:14 10° S 19:15:40 50° WSW 19:19:02 10° NNW visible
25 Sep 6.4 18:47:49 10° SSE 18:51:21 73° E 18:54:49 10° N visible
26 Sep 9.1 05:23:47 10° NE 05:26:57 27° ESE 05:30:06 10° SSE visible
26 Sep 10.0 19:58:10 10° SSW 20:00:07 14° WSW 20:02:02 10° W visible
27 Sep 10.0 05:00:42 10° ENE 05:02:48 15° ESE 05:04:53 10° SSE visible
27 Sep 8.9 19:32:56 10° SSW 19:35:57 27° WSW 19:38:56 10° NW visible
28 Sep 7.3 19:08:14 10° S 19:11:43 56° WSW 19:15:07 10° NNW visible
30 Sep 9.4 06:20:01 10° NE 06:23:01 24° ESE 06:26:00 10° SSE visible
30 Sep 9.9 20:53:59 10° SSW 20:56:09 16° WSW 20:58:19 10° WNW visible
01 Oct 10.1 05:57:06 10° E 05:58:51 13° ESE 06:00:37 10° SE visible
01 Oct 8.8 20:28:52 10° S 20:31:58 30° WSW 20:35:03 10° NW visible
